Regional Weather Roundup
Issued by NWS

Home | Current Version | Previous Version | Text Only | Print | Product List | Glossary On
Versions: 1 2 3 4 5 6 7 8 9 10 11 12 13 14 15 16 17 18 19 20 21 22 23 24 25 26 27 28 29 30 31 32 33 34 35 36 37 38 39 40 41 42 43 44 45 46 47 48 49 50
647
ASUS44 KLIX 161205
RWRLA
LOUISIANA WEATHER ROUNDUP
NATIONAL WEATHER SERVICE NEW ORLEANS LA
700 AM CDT TUE SEP 16 2014

NOTE: "FAIR" INDICATES FEW OR NO CLOUDS BELOW 12,000 FEET WITH NO
      SIGNIFICANT WEATHER AND/OR OBSTRUCTIONS TO VISIBILITY.
      SKY/WX - SKY CONDITION AND SIGNIFICANT WEATHER.
      TMP - AIR TEMPERATURE.    DP   - DEWPOINT TEMPERATURE.
      RH  - RELATIVE HUMIDITY.  PRES - PRESSURE.
      HX  - HEAT INDEX.         WCI  - WIND CHILL INDEX.

*  THESE STATIONS ARE NOT NWS OR FAA STATIONS AND ARE NOT UNDER
   NWS QUALITY CONTROL.

LAZ040-048-061>063-065-066-069-161300-
SOUTHEAST LOUISIANA

CITY           SKY/WX    TMP DP  RH WIND       PRES   REMARKS
N.O. AUDUBON     N/A     79  78  96 MISG        N/A
6HR MIN TEMP:  78; 6HR MAX TEMP:  79;

N.O. INTL ARPT PTCLDY    76  74  93 W3        30.06R
6HR MIN TEMP:  75; 6HR MAX TEMP:  78;

N.O. LAKEFRONT PTCLDY    81  75  82 NW7       30.06R
6HR MIN TEMP:  80; 6HR MAX TEMP:  82;

N.O. DOWNTOWN* FAIR      81  72  74 CALM      30.06S
6HR MIN TEMP:  81; 6HR MAX TEMP:  81;

SLIDELL        CLEAR     73  70  90 CALM      30.06R
6HR MIN TEMP:  73; 6HR MAX TEMP:  76;

BATON ROUGE    PTCLDY    74  72  93 CALM      30.07R
6HR MIN TEMP:  73; 6HR MAX TEMP:  75; 6HR PCP: TRACE;

BOOTHVILLE     CLOUDY    78  76  93 SW5       30.08R
6HR MIN TEMP:  76; 6HR MAX TEMP:  83; 6HR PCP:  0.55;

BELLE CHASSE   MOCLDY    74  71  91 CALM      30.06R
6HR MIN TEMP:  74; 6HR MAX TEMP:  77;

BOGALUSA*      FOG       73  70  89 CALM      30.08S VSB 1/2
6HR MIN TEMP:  73; 6HR MAX TEMP:  76;

GALLIANO*      NOT AVBL
NEW ROADS*     FAIR      72  71  98 CALM      30.07S FOG
6HR MIN TEMP:  72; 6HR MAX TEMP:  75;

GONZALES*      FAIR      73  73  99 CALM      30.06S
6HR MIN TEMP:  73; 6HR MAX TEMP:  76;

HAMMOND*       CLEAR     73  70  88 CALM      30.08S
HOUMA*         PTCLDY    73  72  94 CALM      30.06S
PORT FOURCHON* PTSUNNY   79  75  89 CALM      30.10S

$$

LAZ041-044-053-054-161300-
SOUTHWEST LOUISIANA

CITY           SKY/WX    TMP DP  RH WIND       PRES   REMARKS
LAKE CHARLES   CLEAR     75  72  90 NE3       30.06R
6HR MIN TEMP:  75; 6HR MAX TEMP:  77;

LAFAYETTE      FAIR      74  74 100 CALM      30.06S
6HR MIN TEMP:  74; 6HR MAX TEMP:  75;

PATTERSON      CLOUDY    75  73  94 CALM      30.09R VSB 1/4
6HR MIN TEMP:  73; 6HR MAX TEMP:  75;

SALT POINT       N/A     80  77  90 CALM      30.06R
6HR MIN TEMP:  79; 6HR MAX TEMP:  81;

NEW IBERIA     CLEAR     75  73  93 CALM      30.07R
6HR MIN TEMP:  75; 6HR MAX TEMP:  76;

CHENAULT AIRPK PTCLDY    75  73  94 CALM      30.06S

$$

LAZ027-028-161300-
CENTRAL LOUISIANA

CITY           SKY/WX    TMP DP  RH WIND       PRES   REMARKS
FORT POLK      CLOUDY    74  72  93 CALM      30.08R
6HR MIN TEMP:  74; 6HR MAX TEMP:  78;

ALEXANDRIA INT MOCLDY    73  70  90 CALM      30.07R
6HR MIN TEMP:  73; 6HR MAX TEMP:  77;

ALEXANDRIA     MOCLDY    74  69  85 VRB3      30.08R
6HR MIN TEMP:  74; 6HR MAX TEMP:  76;


$$

LAZ001-002-161300-
NORTHWEST LOUISIANA

CITY           SKY/WX    TMP DP  RH WIND       PRES   REMARKS
SHREVEPORT     CLOUDY    73  69  87 CALM      30.10R
6HR MIN TEMP:  73; 6HR MAX TEMP:  76; 6HR PCP: TRACE;

BARKSDALE AFB  CLOUDY    71  69  95 NE2       30.11R
6HR MIN TEMP:  71; 6HR MAX TEMP:  73; 6HR PCP:  0.03;

DTN SHREVEPORT CLOUDY    72  69  90 CALM      30.11R
6HR MIN TEMP:  72; 6HR MAX TEMP:  74; 6HR PCP:  0.01;


$$

LAZ014-016-161300-
NORTHEAST LOUISIANA

CITY           SKY/WX    TMP DP  RH WIND       PRES   REMARKS
MONROE         CLOUDY    72  68  87 CALM      30.10S
6HR MIN TEMP:  71; 6HR MAX TEMP:  73;

TALLULAH       CLOUDY    70  68  93 E3        30.09R
6HR MIN TEMP:  70; 6HR MAX TEMP:  74;


$$




USA.gov is the U.S. government's official web portal to all federal, state and local government web resources and services.